Theta_e
318 315 316 315 315 315 314 316 317 317 317 318 318 318 317 317 318 318 319 318 320 320 319 317 317 316 315 314 314 313 313 312 311 311 312 312 312 311 309 307 304 302 300 299
316 316 315 315 316 316 316 316 315 316 318 317 317 318 318 315 317 318 319 318 319 319 318 317 317 316 315 314 314 313 313 311 311 310 311 311 311 310 308 306 303 301 300 299
315 317 318 317 318 319 318 317 316 317 318 317 318 318 317 316 317 319 319 319 319 320 320 319 318 317 316 315 314 314 313 312 311 310 309 310 310 309 307 304 302 300 299 299
316 318 318 318 318 318 318 317 318 319 318 317 317 319 315 315 315 314 317 319 319 318 319 319 319 318 317 316 315 313 312 311 310 309 309 309 309 308 306 303 301 299 299 299
316 318 317 319 319 316 318 318 318 319 317 317 317 316 317 315 315 315 314 317 319 319 318 319 319 319 318 316 316 314 312 311 309 308 308 308 308 307 305 303 300 299 298 299
315 318 317 317 318 317 317 318 317 316 315 317 317 316 319 315 317 317 317 318 318 318 319 318 319 319 318 317 315 314 313 311 309 307 307 308 307 306 304 302 300 299 298 299
313 314 316 318 317 318 318 315 316 317 318 319 315 316 319 313 312 313 314 318 321 320 319 318 318 318 318 317 316 314 313 311 308 306 306 307 307 305 304 302 300 299 299 298
315 315 316 315 318 317 316 316 316 318 318 317 315 317 317 314 317 318 317 320 320 320 320 320 319 319 319 318 316 315 313 310 307 306 306 307 305 305 303 301 299 299 299 299
314 316 315 316 317 317 317 317 316 315 314 314 315 316 314 314 314 313 315 317 320 320 320 321 320 320 319 318 317 315 314 311 308 307 306 306 305 304 303 301 299 299 299 299
314 316 316 316 316 316 316 315 317 314 318 318 316 314 316 314 316 315 312 314 320 320 319 320 320 320 319 318 317 315 314 313 310 307 306 306 305 304 302 300 299 298 298 298
315 314 318 317 315 316 316 317 316 314 315 318 319 318 312 316 315 313 312 316 320 320 320 321 320 320 319 318 317 316 314 312 309 307 306 305 305 303 302 300 299 298 298 298
320 322 321 319 317 316 316 317 317 319 319 313 318 319 315 312 311 312 314 317 317 319 320 320 320 319 318 317 316 315 314 311 310 308 306 306 305 303 302 300 299 298 298 297
319 322 325 324 320 315 316 316 316 316 317 319 320 320 316 315 315 315 313 316 318 318 319 319 319 318 317 317 316 315 313 311 310 308 307 306 304 303 302 300 299 298 298 297
315 318 323 324 321 313 315 312 316 315 319 319 319 318 318 315 312 312 315 318 318 317 318 318 317 317 316 316 315 314 312 311 310 308 307 305 303 302 301 300 299 298 297 297
314 315 314 313 312 312 312 311 310 313 313 314 317 319 319 318 317 317 317 316 315 314 315 317 317 317 316 315 314 313 311 311 310 308 306 305 303 302 301 300 299 298 297 297
310 309 311 312 311 310 309 309 312 312 311 313 318 319 318 318 316 316 316 315 317 315 315 316 315 316 316 316 315 313 311 310 309 307 306 304 303 302 301 299 298 298 297 297
307 309 307 309 308 309 309 309 311 311 312 313 316 318 313 311 313 316 316 316 315 318 317 316 316 315 315 315 314 313 311 310 308 307 305 303 302 301 300 299 298 298 297 297
307 308 307 308 307 310 309 310 311 312 311 315 315 314 311 310 309 310 315 318 318 317 319 319 317 315 315 315 314 313 311 310 308 306 304 303 301 300 299 298 298 297 297 297
305 309 312 311 309 310 310 311 316 316 316 312 311 310 309 307 308 311 314 312 313 316 319 320 320 318 315 315 314 312 311 309 307 305 304 302 300 300 299 298 298 297 297 297
304 307 308 305 303 306 305 309 313 313 313 311 311 310 308 306 308 309 311 313 311 311 314 320 320 317 315 314 313 312 310 308 306 304 303 301 300 300 299 298 297 298 297 296
305 306 307 308 308 309 310 310 308 309 311 310 310 309 308 308 308 309 312 312 309 311 315 318 318 317 316 314 312 311 309 307 306 303 301 300 300 299 298 298 298 297 297 297
305 306 305 306 307 304 310 306 306 306 308 309 310 308 309 310 310 310 312 312 306 309 314 315 315 315 314 312 311 310 308 306 303 302 301 300 299 298 298 298 297 297 297 297
303 304 305 305 303 303 305 305 305 305 304 306 308 308 310 309 311 312 310 311 306 306 312 313 313 312 312 311 310 309 306 304 302 300 300 299 298 298 298 298 297 297 297 297
301 302 305 305 305 304 305 304 304 304 306 305 307 306 310 309 310 312 309 310 309 306 309 311 311 310 309 309 307 306 304 302 301 300 299 298 298 298 298 297 297 297 297 297
303 303 303 303 303 303 303 303 303 303 304 304 305 305 305 309 310 309 309 309 312 306 307 308 309 308 307 306 304 303 302 301 299 299 298 298 298 298 298 297 297 297 297 297
303 303 304 304 303 302 302 303 303 303 304 303 303 304 306 306 309 310 310 309 311 306 306 307 307 306 304 303 301 301 300 299 299 299 298 298 298 298 297 297 297 297 296 297
Wind_Speed
6 3 9 13 10 3 4 4 5 4 6 9 15 20 19 22 21 24 33 40 46 48 45 45 43 40 40 39 38 36 34 31 30 26 22 20 18 17 15 14 11 10 8 6
0 9 15 6 7 8 8 8 9 8 8 10 9 20 18 8 15 31 40 39 47 47 45 45 45 44 45 43 42 38 35 33 31 26 23 20 18 18 15 13 11 10 8 8
6 7 5 9 7 8 11 14 6 9 3 4 4 11 8 9 25 36 40 42 46 52 50 50 48 50 49 48 46 41 37 35 32 28 25 23 20 18 15 13 11 10 10 8
7 17 15 6 8 14 16 8 14 10 4 7 6 14 8 7 15 10 32 37 48 51 53 52 50 51 54 50 44 40 37 36 33 31 27 24 20 18 14 12 11 11 10 8
8 4 8 15 18 8 9 8 9 6 5 1 5 4 3 4 7 15 16 40 47 48 48 53 54 53 52 49 43 39 37 35 34 32 28 24 21 17 15 12 11 10 9 10
11 12 4 5 6 9 4 3 6 4 3 5 10 8 24 9 15 14 19 32 37 38 41 45 47 46 50 49 43 39 36 35 34 32 29 25 22 17 15 13 11 10 10 10
5 10 7 9 6 2 4 6 3 4 2 11 11 8 22 8 8 11 15 33 25 29 34 39 43 45 49 50 46 41 37 36 34 33 30 26 22 18 15 13 11 10 10 12
4 12 9 9 20 13 9 9 7 8 7 12 6 10 13 12 27 34 33 29 18 25 31 36 39 43 46 46 47 42 39 36 34 33 31 26 23 19 16 12 12 12 12 14
5 9 6 4 14 14 9 9 9 7 1 2 6 9 11 8 10 11 20 30 34 29 32 36 38 41 43 42 46 45 40 35 34 33 30 27 24 21 16 12 12 13 15 16
4 17 12 11 3 4 10 6 2 0 7 11 10 6 12 5 15 14 10 19 32 33 33 35 38 40 39 39 42 42 38 35 33 31 29 27 25 21 17 13 14 15 16 16
4 7 14 3 6 8 2 9 5 5 7 13 16 12 9 17 16 12 12 30 36 37 36 37 37 36 38 38 40 40 38 36 34 30 28 27 25 20 18 15 15 16 16 17
4 5 9 14 12 13 19 17 21 13 16 5 15 23 2 7 8 10 21 32 33 34 34 34 36 36 38 38 39 41 39 38 35 30 28 27 23 21 19 18 17 17 17 18
9 4 9 14 9 5 5 8 14 11 15 21 19 23 6 11 14 18 16 19 20 28 34 35 36 38 39 40 40 41 41 39 35 31 28 26 24 24 21 20 19 17 18 18
4 5 10 10 5 7 10 23 22 12 12 19 22 31 26 12 8 11 23 30 33 33 39 39 37 39 42 42 41 42 41 40 35 31 29 27 27 25 22 20 19 18 17 16
3 9 13 18 23 22 21 22 24 23 17 11 26 30 27 21 19 24 33 31 26 29 38 39 41 43 43 42 41 42 40 39 35 32 31 29 27 25 22 21 19 18 16 16
6 15 14 18 21 19 20 17 21 24 23 23 23 29 22 33 27 22 27 27 35 34 38 41 42 44 44 43 42 41 40 39 35 33 31 29 28 25 23 21 19 17 17 17
14 12 6 19 20 19 15 15 18 15 15 12 18 14 21 20 26 27 27 33 38 44 44 43 45 47 45 43 42 41 39 37 35 33 31 30 27 26 24 20 18 18 18 18
16 18 9 12 14 15 11 12 17 19 18 8 9 12 14 23 41 52 38 39 43 44 39 40 40 44 43 43 39 37 36 35 36 34 32 29 28 26 21 20 19 19 19 20
5 10 5 4 5 13 14 11 4 1 7 5 6 12 24 34 45 39 28 36 40 42 46 40 36 41 46 42 36 36 35 35 36 34 32 30 28 24 22 21 20 18 19 21
4 9 6 5 3 10 24 7 10 3 7 9 10 15 19 26 12 16 51 62 63 52 46 40 37 44 44 38 34 36 34 35 37 35 31 30 27 23 21 21 18 17 19 18
3 2 5 9 9 7 6 9 17 7 9 19 13 15 13 10 12 39 48 57 60 47 41 41 34 33 36 35 34 33 32 36 34 31 31 28 24 21 20 17 17 18 17 17
3 7 9 5 5 8 7 19 5 10 24 25 21 20 19 26 29 39 45 51 46 31 34 28 29 30 30 30 31 31 32 32 32 31 27 24 21 19 15 16 17 16 16 18
7 8 7 7 8 13 26 24 30 29 31 31 28 33 15 27 27 33 49 49 32 13 26 27 27 27 28 29 26 27 29 31 29 27 24 21 17 14 15 16 16 16 17 18
7 13 7 7 19 20 28 34 34 35 26 30 34 36 26 33 27 28 45 47 41 10 17 23 25 27 29 25 22 19 27 27 25 23 19 16 15 15 15 16 17 17 18 19
8 6 13 16 22 26 35 33 29 32 35 37 35 33 33 32 29 24 30 42 41 19 11 17 20 23 26 27 24 22 23 23 21 17 15 15 14 15 16 17 17 17 18 20
16 14 7 14 25 23 31 34 39 34 36 39 39 36 30 30 30 25 28 33 35 20 17 17 18 21 25 24 20 18 17 18 17 16 16 14 14 15 15 16 17 17 20 17
Wind_Direction
203 146 215 201 204 167 196 216 231 246 218 183 222 236 246 241 216 231 230 228 228 231 235 228 226 224 223 225 224 224 228 229 230 232 237 247 256 262 265 271 279 281 291 288
219 231 232 199 216 225 241 260 266 270 252 182 238 243 243 211 223 225 232 229 232 234 232 231 226 226 226 226 226 227 230 231 232 234 240 247 253 256 258 265 272 279 282 278
191 237 205 191 224 214 235 234 240 235 286 251 313 268 250 243 232 238 242 241 238 235 233 232 226 225 226 227 229 231 232 233 234 237 239 244 247 251 253 261 269 275 270 275
234 245 258 201 231 203 241 211 231 245 182 248 159 279 228 239 247 220 235 239 239 237 237 237 232 226 226 228 229 232 233 234 235 235 238 242 248 250 253 260 265 261 261 266
249 271 230 244 234 182 237 187 207 217 217 5 207 272 203 249 267 265 241 243 246 239 231 234 233 231 231 228 227 229 230 233 234 234 237 241 245 245 250 255 257 257 253 257
237 259 280 237 239 212 139 105 33 43 95 256 211 182 272 218 224 245 258 265 261 245 238 235 237 231 228 227 224 225 227 230 233 232 235 240 242 244 250 256 259 256 255 263
307 242 213 202 235 347 157 109 271 281 190 243 168 202 241 251 239 221 248 269 267 240 229 224 225 223 224 222 219 220 224 228 229 231 235 238 241 246 250 256 261 261 265 277
263 286 176 209 207 198 204 178 186 211 221 257 175 227 244 219 243 255 246 249 262 230 224 223 225 223 223 221 217 219 223 226 228 230 234 237 239 246 250 254 260 268 273 282
224 255 258 196 215 182 208 214 222 283 160 320 218 274 281 256 261 262 246 243 246 236 223 223 222 223 222 221 218 220 221 224 226 229 233 235 239 242 246 252 262 267 269 277
288 289 242 263 209 247 201 168 186 175 249 251 259 264 243 308 241 246 254 235 236 232 222 220 221 221 222 223 220 220 224 225 225 227 230 235 239 238 240 249 262 267 267 274
278 228 269 206 197 211 197 224 218 179 191 242 258 254 197 228 232 235 235 240 239 230 222 218 218 218 220 220 219 219 221 221 222 226 228 232 231 232 238 250 264 267 267 279
304 289 279 265 245 233 232 229 221 231 241 243 246 257 177 221 263 255 252 254 254 236 224 218 217 216 217 218 219 220 221 220 223 224 226 229 227 231 238 249 265 266 273 281
349 296 308 298 301 6 344 337 309 255 246 243 246 260 207 250 252 254 263 272 260 238 224 221 217 216 217 218 220 221 222 222 221 220 223 224 224 230 240 248 264 267 275 280
295 273 286 285 338 336 306 316 316 349 280 269 247 263 265 271 267 267 263 270 271 248 228 223 218 219 219 220 221 223 223 223 221 220 222 222 223 231 241 250 262 267 275 282
243 265 262 262 276 282 280 270 279 286 293 288 291 292 273 261 252 246 258 270 275 254 232 224 221 222 221 221 223 225 225 222 219 220 220 222 226 232 239 250 259 267 277 285
204 271 270 273 274 273 277 278 256 258 259 274 290 296 308 285 285 261 253 249 254 253 234 224 224 226 225 223 225 224 224 220 219 219 221 221 222 230 238 250 258 269 276 282
257 262 263 273 281 289 280 253 244 248 248 249 263 323 344 355 342 297 255 248 240 239 240 235 232 231 230 228 225 223 223 219 218 219 219 218 224 227 236 249 254 265 273 281
258 260 263 259 283 262 258 252 260 255 261 339 2 353 352 339 328 314 293 260 252 246 238 248 246 237 233 232 225 224 219 218 217 216 215 218 219 225 238 243 256 264 272 282
234 257 282 254 236 291 299 276 8 77 251 278 339 342 335 340 332 308 334 333 314 273 257 250 242 237 233 230 220 218 216 214 214 213 214 215 217 226 237 245 257 263 274 288
329 239 228 257 266 274 265 306 320 213 276 27 348 341 342 340 308 307 315 315 306 300 272 248 240 232 229 224 215 210 211 210 210 210 211 211 218 230 237 250 253 267 283 292
301 301 268 290 287 272 302 25 351 358 319 314 316 314 325 286 283 302 310 310 304 293 267 247 228 215 219 214 205 203 207 209 208 205 203 210 221 231 242 245 259 278 288 297
286 305 287 261 256 272 193 326 350 276 291 292 289 304 290 291 310 321 322 324 308 281 243 216 203 201 203 200 195 199 203 203 197 198 205 212 226 230 232 251 269 281 290 294
257 206 258 211 244 278 293 297 297 304 297 288 283 303 293 316 306 319 323 329 322 250 194 181 183 181 184 187 193 194 194 193 195 199 209 215 217 224 240 258 272 283 287 293
242 248 246 291 264 262 280 291 291 294 291 307 298 305 293 316 312 314 318 322 328 275 179 171 173 173 173 181 184 189 187 190 197 203 203 207 217 228 247 264 273 278 287 293
255 270 271 268 275 288 279 278 296 302 301 305 308 305 300 290 295 310 317 314 319 291 227 177 173 172 173 173 175 181 188 194 195 198 205 213 227 243 255 264 270 280 287 292
238 265 256 267 278 282 280 291 295 295 296 299 299 303 303 297 288 295 301 308 299 284 235 198 183 180 178 175 178 183 191 195 196 203 214 230 243 250 258 266 274 280 289 292